AUL7655 ULAA-ULLI

Flight info

Callsign AUL7655
Flight time N/A
Altitude 36000
Route OBIRA3K OBIRA M58 OSNAN DCT PRIBI DCT BEPOL BEPOL1A
Aircraft B737/M-SDE2E3FGHIRWXY/LB1

Departure

Time 2026-04-20 19:18
Airport Talagi Airport (ULAA)

Arrival

Time N/A
Airport Pulkovo Airport (ULLI)
Time Latitude Longitude Altitude Speed Heading
2026-04-20 18:54 64.59663 40.71388 39 ft 0 kts 186°
2026-04-20 19:07 64.59678 40.71391 39 ft 3 kts 176°
2026-04-20 19:08 64.59697 40.71383 38 ft 3 kts 155°
2026-04-20 19:08 64.59723 40.71319 39 ft 3 kts 105°
2026-04-20 19:08 64.59726 40.71296 39 ft 0 kts 96°
2026-04-20 19:11 64.59729 40.71333 66 ft 5 kts 67°
2026-04-20 19:11 64.59760 40.71380 39 ft 6 kts
2026-04-20 19:11 64.59799 40.71393 39 ft 6 kts 11°
2026-04-20 19:12 64.59823 40.71467 38 ft 6 kts 81°
2026-04-20 19:12 64.59820 40.71594 39 ft 10 kts 96°
2026-04-20 19:12 64.59812 40.71759 39 ft 10 kts 96°
2026-04-20 19:12 64.59803 40.71935 39 ft 12 kts 96°
2026-04-20 19:13 64.59794 40.72134 39 ft 12 kts 96°
2026-04-20 19:13 64.59784 40.72329 39 ft 12 kts 96°
2026-04-20 19:13 64.59774 40.72541 39 ft 15 kts 96°
2026-04-20 19:13 64.59763 40.72748 39 ft 8 kts 96°
2026-04-20 19:14 64.59757 40.72879 39 ft 9 kts 97°
2026-04-20 19:14 64.59750 40.73027 39 ft 10 kts 96°
2026-04-20 19:14 64.59741 40.73213 39 ft 13 kts 96°
2026-04-20 19:14 64.59731 40.73419 39 ft 13 kts 96°
2026-04-20 19:15 64.59721 40.73620 39 ft 12 kts 96°
2026-04-20 19:15 64.59704 40.73812 39 ft 12 kts 98°
2026-04-20 19:15 64.59694 40.74003 38 ft 12 kts 97°
2026-04-20 19:15 64.59710 40.74172 38 ft 11 kts 32°
2026-04-20 19:16 64.59768 40.74198 39 ft 4 kts
2026-04-20 19:16 64.59782 40.74201 39 ft 0 kts
2026-04-20 19:16 64.59808 40.74208 39 ft 8 kts
2026-04-20 19:17 64.59878 40.74203 36 ft 13 kts 332°
2026-04-20 19:17 64.59911 40.74064 34 ft 0 kts 276°
2026-04-20 19:17 64.59925 40.73782 34 ft 59 kts 277°
2026-04-20 19:18 64.60008 40.72089 36 ft 148 kts 277°
2026-04-20 19:18 64.60117 40.69384 600 ft 179 kts 277°
2026-04-20 19:18 64.60209 40.67372 1183 ft 196 kts 277°
2026-04-20 19:18 64.60375 40.64102 2097 ft 205 kts 278°
2026-04-20 19:19 64.60535 40.60892 3232 ft 200 kts 278°
2026-04-20 19:19 64.60763 40.56253 3877 ft 232 kts 278°
2026-04-20 19:19 64.60852 40.52430 4626 ft 243 kts 262°
2026-04-20 19:19 64.60434 40.49999 5178 ft 248 kts 236°
2026-04-20 19:20 64.59121 40.47303 6078 ft 252 kts 216°
2026-04-20 19:20 64.57634 40.44979 6640 ft 271 kts 214°
2026-04-20 19:20 64.56017 40.42527 7426 ft 282 kts 214°
2026-04-20 19:20 64.54351 40.40013 8505 ft 286 kts 214°
2026-04-20 19:21 64.52664 40.37459 9574 ft 292 kts 214°
2026-04-20 19:21 64.50947 40.34852 10539 ft 299 kts 214°
2026-04-20 19:21 64.49146 40.32106 10987 ft 324 kts 214°
2026-04-20 19:21 64.47243 40.29198 11627 ft 337 kts 215°
2026-04-20 19:22 64.45260 40.26170 12535 ft 343 kts 215°
2026-04-20 19:22 64.43250 40.23101 13484 ft 348 kts 215°
2026-04-20 19:22 64.41301 40.20126 14323 ft 354 kts 215°
2026-04-20 19:22 64.39232 40.16972 15158 ft 359 kts 215°
2026-04-20 19:23 64.37131 40.13772 16019 ft 363 kts 215°
2026-04-20 19:23 64.35007 40.10542 16864 ft 368 kts 215°
2026-04-20 19:23 64.32853 40.07271 17685 ft 373 kts 215°
2026-04-20 19:23 64.30666 40.03957 18518 ft 378 kts 215°
2026-04-20 19:24 64.28452 40.00606 19226 ft 384 kts 215°
2026-04-20 19:24 64.26202 39.97210 19939 ft 388 kts 215°
2026-04-20 19:24 64.23957 39.93827 20637 ft 393 kts 215°
2026-04-20 19:24 64.21655 39.90365 21333 ft 399 kts 215°
2026-04-20 19:25 64.19318 39.86857 22035 ft 403 kts 215°
2026-04-20 19:25 64.16954 39.83317 22720 ft 408 kts 215°
2026-04-20 19:25 64.14560 39.79739 23390 ft 413 kts 215°
2026-04-20 19:25 64.12136 39.76123 24012 ft 418 kts 215°
2026-04-20 19:26 64.09685 39.72476 24585 ft 422 kts 215°
2026-04-20 19:26 64.07211 39.68803 25163 ft 426 kts 215°
2026-04-20 19:26 64.04711 39.65099 25725 ft 429 kts 215°
2026-04-20 19:26 64.02191 39.61373 26268 ft 433 kts 215°
2026-04-20 19:27 63.99646 39.57618 26796 ft 437 kts 215°
2026-04-20 19:27 63.97076 39.53834 27322 ft 441 kts 215°
2026-04-20 19:27 63.94478 39.50017 27833 ft 445 kts 215°
2026-04-20 19:27 63.91863 39.46185 28319 ft 449 kts 215°
2026-04-20 19:28 63.89256 39.42373 28807 ft 453 kts 215°
2026-04-20 19:28 63.86590 39.38483 29298 ft 456 kts 215°
2026-04-20 19:28 63.83927 39.34609 30010 ft 452 kts 215°
2026-04-20 19:28 63.81282 39.30772 30685 ft 449 kts 215°
2026-04-20 19:29 63.78660 39.26976 31331 ft 446 kts 215°
2026-04-20 19:29 63.76048 39.23201 31936 ft 443 kts 215°
2026-04-20 19:29 63.73456 39.19463 32583 ft 440 kts 215°
2026-04-20 19:29 63.70919 39.15811 33232 ft 437 kts 215°
2026-04-20 19:30 63.68365 39.12144 33896 ft 433 kts 214°
2026-04-20 19:30 63.65831 39.08511 34523 ft 428 kts 214°
2026-04-20 19:30 63.63337 39.04945 35095 ft 422 kts 214°
2026-04-20 19:30 63.60874 39.01430 35674 ft 416 kts 214°
2026-04-20 19:31 63.58443 38.97969 36215 ft 411 kts 214°
2026-04-20 19:31 63.55994 38.94485 36228 ft 422 kts 214°
2026-04-20 19:31 63.53488 38.90924 36271 ft 430 kts 214°
2026-04-20 19:32 63.48360 38.83666 36276 ft 447 kts 214°
2026-04-20 19:32 63.42990 38.76105 36270 ft 464 kts 213°
2026-04-20 19:33 63.37436 38.68324 36271 ft 478 kts 213°
2026-04-20 19:33 63.31724 38.60360 36268 ft 490 kts 213°
2026-04-20 19:34 63.25921 38.52306 36268 ft 499 kts 213°
2026-04-20 19:34 63.19988 38.44112 36258 ft 505 kts 213°
2026-04-20 19:35 63.14017 38.35907 36250 ft 504 kts 213°
2026-04-20 19:35 63.08056 38.27755 36253 ft 504 kts 213°
2026-04-20 19:36 63.02086 38.19629 36255 ft 504 kts 213°
2026-04-20 19:36 62.96113 38.11537 36259 ft 504 kts 212°
2026-04-20 19:37 62.90125 38.03466 36256 ft 505 kts 212°
2026-04-20 19:38 62.77596 37.86702 36257 ft 505 kts 212°
2026-04-20 19:38 62.71589 37.78725 36257 ft 506 kts 212°
2026-04-20 19:39 62.65762 37.71023 36259 ft 506 kts 212°
2026-04-20 19:39 62.59733 37.63092 36253 ft 506 kts 212°
2026-04-20 19:40 62.53701 37.55195 36254 ft 506 kts 212°
2026-04-20 19:40 62.47657 37.47320 36250 ft 506 kts 212°
2026-04-20 19:41 62.41651 37.39532 36254 ft 506 kts 211°
2026-04-20 19:41 62.35649 37.31786 36223 ft 490 kts 211°
2026-04-20 19:42 62.29754 37.24211 36172 ft 499 kts 211°
2026-04-20 19:42 62.23744 37.16523 36179 ft 506 kts 211°
2026-04-20 19:43 62.17709 37.08838 36217 ft 508 kts 211°
2026-04-20 19:43 62.11646 37.01064 36254 ft 507 kts 212°
2026-04-20 19:44 62.05594 36.92864 36287 ft 507 kts 213°
2026-04-20 19:45 61.88044 36.69308 36366 ft 507 kts 213°
2026-04-20 19:46 61.82710 36.59663 36366 ft 505 kts 228°
2026-04-20 19:46 61.77944 36.48727 36380 ft 505 kts 229°
2026-04-20 19:47 61.73184 36.37809 36408 ft 505 kts 228°
2026-04-20 19:47 61.70786 36.32384 36418 ft 505 kts 228°
2026-04-20 19:48 61.61827 36.12430 36456 ft 506 kts 227°
2026-04-20 19:49 61.53868 35.94888 36486 ft 506 kts 227°
2026-04-20 19:49 61.48995 35.84206 36502 ft 506 kts 227°
2026-04-20 19:50 61.44118 35.73566 36520 ft 506 kts 227°
2026-04-20 19:50 61.39234 35.62964 36537 ft 507 kts 227°
2026-04-20 19:51 61.34368 35.52450 36565 ft 507 kts 227°
2026-04-20 19:51 61.29466 35.41910 36578 ft 507 kts 226°
2026-04-20 19:52 61.24547 35.31382 36589 ft 507 kts 226°
2026-04-20 19:52 61.19622 35.20893 36606 ft 507 kts 226°
2026-04-20 19:53 61.14706 35.10475 36616 ft 508 kts 226°
2026-04-20 19:53 61.09761 35.00041 36634 ft 508 kts 226°
2026-04-20 19:54 61.04802 34.89631 36651 ft 508 kts 226°
2026-04-20 19:54 60.99839 34.79258 36666 ft 508 kts 226°
2026-04-20 19:55 60.94854 34.68890 36683 ft 509 kts 226°
2026-04-20 19:55 60.89858 34.58549 36702 ft 509 kts 225°
2026-04-20 19:56 60.85710 34.49999 36720 ft 509 kts 225°
2026-04-20 19:56 60.79883 34.38046 36737 ft 509 kts 225°
2026-04-20 19:57 60.74879 34.27831 36750 ft 509 kts 225°
2026-04-20 19:57 60.69874 34.17664 36764 ft 509 kts 225°
2026-04-20 19:58 60.64848 34.07499 36782 ft 509 kts 225°
2026-04-20 19:58 60.59798 33.97336 36795 ft 509 kts 225°
2026-04-20 19:59 60.54750 33.87222 36804 ft 509 kts 225°
2026-04-20 19:59 60.52234 33.82199 36551 ft 502 kts 225°
2026-04-20 19:59 60.49765 33.77281 36299 ft 490 kts 225°
2026-04-20 19:59 60.47368 33.72517 36230 ft 475 kts 224°
2026-04-20 20:00 60.45025 33.67870 36232 ft 468 kts 224°
2026-04-20 20:00 60.40425 33.58774 36245 ft 472 kts 224°
2026-04-20 20:01 60.33774 33.45689 35566 ft 481 kts 224°
2026-04-20 20:01 60.31387 33.41011 35143 ft 476 kts 224°
2026-04-20 20:01 60.29018 33.36379 34695 ft 472 kts 224°
2026-04-20 20:02 60.26659 33.31773 34220 ft 470 kts 224°
2026-04-20 20:02 60.24317 33.27212 33708 ft 467 kts 224°
2026-04-20 20:02 60.21996 33.22672 33241 ft 463 kts 227°
2026-04-20 20:03 60.18039 33.10927 32209 ft 452 kts 249°
2026-04-20 20:03 60.16956 33.05061 31766 ft 444 kts 258°
2026-04-20 20:03 60.16121 32.99124 31359 ft 441 kts 259°
2026-04-20 20:03 60.15311 32.93200 30937 ft 438 kts 259°
2026-04-20 20:04 60.14513 32.87393 30545 ft 436 kts 259°
2026-04-20 20:04 60.14239 32.85420 30410 ft 435 kts 259°
2026-04-20 20:05 60.10842 32.61714 28593 ft 422 kts 258°
2026-04-20 20:06 60.07832 32.41142 27050 ft 411 kts 258°